TimeCST,TemperatureF,Dew PointF,Humidity,Sea Level PressureIn,VisibilityMPH,Wind Direction,Wind SpeedMPH,Gust SpeedMPH,PrecipitationIn,Events,Conditions,WindDirDegrees,DateUTC
12:53 AM,-2.0,-8.0,76,30.04,10.0,Calm,Calm,-,N/A,,Clear,0,2012-12-12 06:53:00
1:53 AM,-2.9,-7.1,82,30.05,10.0,Calm,Calm,-,N/A,,Clear,0,2012-12-12 07:53:00
2:53 AM,-2.0,-7.1,79,30.06,10.0,Calm,Calm,-,N/A,,Clear,0,2012-12-12 08:53:00
3:53 AM,-2.9,-7.1,82,30.06,10.0,Calm,Calm,-,N/A,,Clear,0,2012-12-12 09:53:00
4:53 AM,1.0,-4.0,79,30.06,10.0,Calm,Calm,-,N/A,,Overcast,0,2012-12-12 10:53:00
5:53 AM,3.0,-2.0,80,30.03,10.0,East,3.5,-,N/A,,Overcast,80,2012-12-12 11:53:00
6:53 AM,3.9,-0.0,84,30.03,10.0,ESE,4.6,-,N/A,,Overcast,110,2012-12-12 12:53:00
7:53 AM,6.1,1.9,83,30.01,10.0,ESE,6.9,-,N/A,,Mostly Cloudy,120,2012-12-12 13:53:00
8:53 AM,9.0,3.9,80,29.99,10.0,ESE,9.2,-,N/A,,Overcast,120,2012-12-12 14:53:00
9:53 AM,12.0,8.1,84,29.98,10.0,ESE,8.1,-,N/A,,Overcast,120,2012-12-12 15:53:00
10:53 AM,17.1,10.9,77,29.96,9.0,SE,12.7,-,N/A,,Overcast,130,2012-12-12 16:53:00
11:53 AM,19.9,14.0,78,29.93,10.0,SE,11.5,-,N/A,,Overcast,140,2012-12-12 17:53:00
12:53 PM,21.9,16.0,78,29.92,10.0,SE,11.5,-,N/A,,Overcast,140,2012-12-12 18:53:00
1:53 PM,23.0,17.1,78,29.89,10.0,SE,10.4,-,N/A,,Overcast,130,2012-12-12 19:53:00
2:53 PM,25.0,18.0,75,29.88,10.0,SSE,11.5,-,N/A,,Mostly Cloudy,150,2012-12-12 20:53:00
3:53 PM,25.0,19.0,78,29.90,10.0,SSE,8.1,-,N/A,,Overcast,150,2012-12-12 21:53:00
4:53 PM,25.0,19.0,78,29.91,10.0,Calm,Calm,-,N/A,,Overcast,0,2012-12-12 22:53:00
5:53 PM,23.0,19.0,85,29.91,10.0,Calm,Calm,-,N/A,,Overcast,0,2012-12-12 23:53:00
6:53 PM,21.9,19.0,89,29.92,10.0,Calm,Calm,-,N/A,,Overcast,0,2012-12-13 00:53:00
7:53 PM,23.0,19.0,85,29.92,9.0,Calm,Calm,-,N/A,,Overcast,0,2012-12-13 01:53:00
8:53 PM,21.9,18.0,85,29.93,10.0,Calm,Calm,-,N/A,,Overcast,0,2012-12-13 02:53:00
9:53 PM,21.9,19.0,89,29.94,10.0,Calm,Calm,-,N/A,,Overcast,0,2012-12-13 03:53:00
10:53 PM,21.9,19.0,89,29.96,8.0,Calm,Calm,-,N/A,,Overcast,0,2012-12-13 04:53:00
11:53 PM,21.0,18.0,88,29.96,7.0,Calm,Calm,-,N/A,,Scattered Clouds,0,2012-12-13 05:53:00